| time (UTC) | temp F | wind direction | speed MPH | gust MPH | rain 1hr in | rain 24hr in | rain mn in | humidity % | barometer mb |
| 20260506223028 | 64 | 189 | 16.0 | 35.0 | 0.00 | 0.00 | 0.00 | 30 | 1013.1 |
| 20260506221526 | 63 | 221 | 21.0 | 31.0 | 0.00 | 0.00 | 0.00 | 31 | 1013.4 |
| 20260506220025 | 64 | 233 | 12.0 | 20.0 | 0.00 | 0.00 | 0.00 | 31 | 1013.8 |
| 20260506214524 | 63 | 212 | 20.0 | 32.0 | 0.00 | 0.00 | 0.00 | 31 | 1014.2 |
| 20260506213019 | 62 | 223 | 17.0 | 29.0 | 0.00 | 0.00 | 0.00 | 34 | 1014.5 |
| 20260506211518 | 62 | 217 | 22.0 | 40.0 | 0.00 | 0.00 | 0.00 | 32 | 1014.4 |
| 20260506210020 | 61 | 208 | 9.0 | 22.0 | 0.00 | 0.00 | 0.00 | 34 | 1014.6 |
| 20260506204514 | 61 | 212 | 18.0 | 34.0 | 0.00 | 0.00 | 0.00 | 35 | 1015.0 |
| 20260506203009 | 61 | 205 | 15.0 | 24.0 | 0.00 | 0.00 | 0.00 | 34 | 1015.0 |
| 20260506201509 | 61 | 214 | 12.0 | 28.0 | 0.00 | 0.00 | 0.00 | 34 | 1015.2 |
| 20260506200004 | 60 | 212 | 13.0 | 24.0 | 0.00 | 0.00 | 0.00 | 36 | 1015.7 |
| 20260506194502 | 60 | 257 | 17.0 | 31.0 | 0.00 | 0.00 | 0.00 | 35 | 1015.8 |
| 20260506193101 | 60 | 204 | 10.0 | 21.0 | 0.00 | 0.00 | 0.00 | 35 | 1016.1 |
| 20260506191557 | 59 | 231 | 15.0 | 27.0 | 0.00 | 0.00 | 0.00 | 36 | 1016.3 |
| 20260506190053 | 58 | 191 | 14.0 | 23.0 | 0.00 | 0.00 | 0.00 | 38 | 1016.6 |
| 20260506184650 | 54 | 71 | 2.0 | 6.0 | 0.00 | 0.00 | 0.00 | 39 | 1017.1 |
| 20260506183046 | 53 | 117 | 4.0 | 12.0 | 0.00 | 0.00 | 0.00 | 39 | 1017.3 |
| 20260506181547 | 51 | 96 | 5.0 | 11.0 | 0.00 | 0.00 | 0.00 | 39 | 1017.7 |
| 20260506180047 | 50 | 114 | 3.0 | 13.0 | 0.00 | 0.00 | 0.00 | 40 | 1017.9 |
| 20260506174537 | 49 | 106 | 6.0 | 11.0 | 0.00 | 0.00 | 0.00 | 42 | 1018.3 |
| 20260506173031 | 47 | 91 | 8.0 | 15.0 | 0.00 | 0.00 | 0.00 | 43 | 1018.5 |
| 20260506171540 | 47 | 72 | 4.0 | 14.0 | 0.00 | 0.00 | 0.00 | 44 | 1018.7 |
| 20260506170030 | 45 | 104 | 5.0 | 15.0 | 0.00 | 0.00 | 0.00 | 46 | 1019.0 |
| 20260506164521 | 45 | 99 | 8.0 | 13.0 | 0.00 | 0.00 | 0.00 | 46 | 1019.1 |
| 20260506163018 | 43 | 88 | 9.0 | 14.0 | 0.00 | 0.00 | 0.00 | 47 | 1019.4 |
| 20260506161514 | 42 | 81 | 6.0 | 12.0 | 0.00 | 0.00 | 0.00 | 48 | 1019.6 |
| 20260506160012 | 41 | 106 | 8.0 | 15.0 | 0.00 | 0.00 | 0.00 | 49 | 1019.7 |
| 20260506154508 | 40 | 73 | 3.0 | 11.0 | 0.00 | 0.00 | 0.00 | 52 | 1019.9 |
| 20260506153004 | 39 | 86 | 3.0 | 9.0 | 0.00 | 0.00 | 0.00 | 54 | 1020.1 |
| 20260506151501 | 38 | 98 | 4.0 | 8.0 | 0.00 | 0.00 | 0.00 | 54 | 1020.3 |
| 20260506144603 | 37 | 114 | 2.0 | 7.0 | 0.00 | 0.00 | 0.00 | 55 | 1020.4 |
| 20260506143057 | 37 | 86 | 1.0 | 3.0 | 0.00 | 0.00 | 0.00 | 57 | 1020.6 |
| 20260506141555 | 35 | 81 | 0.0 | 4.0 | 0.00 | 0.00 | 0.00 | 58 | 1020.7 |
| 20260506140058 | 33 | 345 | 3.0 | 9.0 | 0.00 | 0.00 | 0.00 | 62 | 1020.8 |
| 20260506134544 | 31 | 345 | 8.0 | 12.0 | 0.00 | 0.00 | 0.00 | 65 | 1020.8 |
| 20260506133047 | 30 | 345 | 8.0 | 14.0 | 0.00 | 0.00 | 0.00 | 67 | 1020.9 |
| 20260506131537 | 29 | 282 | 11.0 | 15.0 | 0.00 | 0.00 | 0.00 | 70 | 1020.7 |
| 20260506130037 | 28 | 277 | 10.0 | 13.0 | 0.00 | 0.00 | 0.00 | 72 | 1020.6 |
| 20260506124534 | 27 | 285 | 10.0 | 13.0 | 0.00 | 0.00 | 0.00 | 74 | 1020.7 |
| 20260506123033 | 27 | 284 | 11.0 | 13.0 | 0.00 | 0.00 | 0.00 | 75 | 1020.5 |
| 20260506121532 | 27 | 284 | 11.0 | 15.0 | 0.00 | 0.00 | 0.00 | 75 | 1020.6 |
| 20260506120037 | 27 | 277 | 10.0 | 13.0 | 0.00 | 0.00 | 0.00 | 74 | 1020.6 |
| 20260506114530 | 27 | 282 | 9.0 | 11.0 | 0.00 | 0.00 | 0.00 | 73 | 1020.6 |
| 20260506113030 | 28 | 274 | 11.0 | 14.0 | 0.00 | 0.00 | 0.00 | 73 | 1020.6 |
| 20260506111528 | 27 | 275 | 11.0 | 14.0 | 0.00 | 0.00 | 0.00 | 74 | 1020.6 |
| 20260506110030 | 27 | 271 | 9.0 | 13.0 | 0.00 | 0.00 | 0.00 | 75 | 1020.7 |
| 20260506104525 | 27 | 277 | 9.0 | 13.0 | 0.00 | 0.00 | 0.00 | 74 | 1020.8 |
| 20260506103030 | 27 | 257 | 1.0 | 7.0 | 0.00 | 0.00 | 0.00 | 75 | 1020.9 |
| 20260506101533 | 27 | 198 | 0.0 | 6.0 | 0.00 | 0.00 | 0.00 | 75 | 1021.0 |
| 20260506100030 | 27 | 265 | 7.0 | 11.0 | 0.00 | 0.00 | 0.00 | 73 | 1020.9 |
| 20260506094522 | 28 | 275 | 8.0 | 11.0 | 0.00 | 0.00 | 0.00 | 72 | 1020.9 |
| 20260506093020 | 28 | 269 | 2.0 | 8.0 | 0.00 | 0.00 | 0.00 | 72 | 1021.1 |
| 20260506091519 | 28 | 283 | 8.0 | 13.0 | 0.00 | 0.00 | 0.00 | 72 | 1021.0 |
| 20260506090017 | 28 | 285 | 9.0 | 15.0 | 0.00 | 0.00 | 0.00 | 73 | 1021.0 |
| 20260506084520 | 28 | 285 | 8.0 | 13.0 | 0.00 | 0.00 | 0.00 | 73 | 1021.2 |
| 20260506083014 | 28 | 277 | 4.0 | 10.0 | 0.00 | 0.00 | 0.00 | 73 | 1021.3 |
| 20260506081517 | 28 | 287 | 8.0 | 13.0 | 0.00 | 0.00 | 0.00 | 74 | 1021.2 |
| 20260506073009 | 27 | 332 | 4.0 | 5.0 | 0.00 | 0.00 | 0.00 | 75 | 1021.5 |
| 20260506071510 | 27 | 286 | 3.0 | 7.0 | 0.00 | 0.00 | 0.00 | 75 | 1021.5 |
| 20260506061613 | 28 | 291 | 11.0 | 13.0 | 0.00 | 0.00 | 0.00 | 72 | 1021.5 |
| 20260506044611 | 29 | 340 | 7.0 | 10.0 | 0.00 | 0.00 | 0.00 | 70 | 1021.4 |
| 20260506043048 | 30 | 304 | 1.0 | 4.0 | 0.00 | 0.00 | 0.00 | 67 | 1021.3 |
| 20260506041549 | 28 | 297 | 3.0 | 5.0 | 0.00 | 0.00 | 0.00 | 69 | 1021.3 |
| 20260506040047 | 30 | 296 | 3.0 | 6.0 | 0.00 | 0.00 | 0.00 | 65 | 1021.1 |
| 20260506034545 | 33 | 333 | 0.0 | 5.0 | 0.00 | 0.00 | 0.00 | 62 | 1021.1 |
| 20260506033044 | 33 | 294 | 6.0 | 10.0 | 0.00 | 0.00 | 0.00 | 59 | 1020.9 |
| 20260506031542 | 34 | 285 | 7.0 | 14.0 | 0.00 | 0.00 | 0.00 | 58 | 1020.7 |
| 20260506030040 | 34 | 304 | 7.0 | 10.0 | 0.00 | 0.00 | 0.00 | 60 | 1020.4 |
| 20260506024538 | 34 | 320 | 6.0 | 13.0 | 0.00 | 0.00 | 0.00 | 59 | 1020.1 |
| 20260506023048 | 35 | 345 | 5.0 | 14.0 | 0.00 | 0.00 | 0.00 | 57 | 1019.9 |
| 20260506021536 | 36 | 345 | 6.0 | 11.0 | 0.00 | 0.00 | 0.00 | 55 | 1019.6 |
| 20260506020132 | 37 | 233 | 4.0 | 11.0 | 0.00 | 0.00 | 0.00 | 53 | 1019.5 |
| 20260506014533 | 37 | 345 | 6.0 | 15.0 | 0.00 | 0.00 | 0.00 | 53 | 1019.4 |
| 20260506013029 | 37 | 75 | 7.0 | 16.0 | 0.00 | 0.00 | 0.00 | 55 | 1019.2 |
| 20260506011530 | 37 | 345 | 6.0 | 19.0 | 0.00 | 0.00 | 0.00 | 55 | 1019.0 |
| 20260506010043 | 38 | 277 | 11.0 | 16.0 | 0.00 | 0.00 | 0.00 | 53 | 1018.7 |
| 20260506004526 | 38 | 70 | 5.0 | 15.0 | 0.00 | 0.00 | 0.00 | 55 | 1018.8 |
| 20260506003024 | 38 | 345 | 11.0 | 17.0 | 0.00 | 0.00 | 0.00 | 56 | 1018.7 |
| 20260506001522 | 38 | 71 | 13.0 | 23.0 | 0.00 | 0.00 | 0.00 | 56 | 1018.5 |
| 20260506000022 | 38 | 276 | 11.0 | 20.0 | 0.00 | 0.00 | 0.00 | 54 | 1018.2 |
| 20260505234533 | 38 | 74 | 16.0 | 22.0 | 0.00 | 0.00 | 0.00 | 51 | 1018.0 |
| 20260505233018 | 38 | 94 | 13.0 | 22.0 | 0.00 | 0.00 | 0.00 | 52 | 1017.8 |
| 20260505231515 | 39 | 79 | 13.0 | 22.0 | 0.00 | 0.00 | 0.00 | 47 | 1017.8 |
| 20260505230012 | 39 | 79 | 16.0 | 26.0 | 0.00 | 0.00 | 0.00 | 52 | 1017.3 |
| 20260505224512 | 40 | 345 | 13.0 | 21.0 | 0.00 | 0.00 | 0.00 | 53 | 1017.3 |